Terminal Aerodrome Forecast
Issued by NWS Missoula, MT

Home | Current Version | Previous Version | Text Only | Print | Product List | Glossary On
Versions: 1 2 3 4 5 6 7 8 9 10 11 12 13 14 15
000
FTUS45 KMSO 261120
TAFBTM
TAF
KBTM 261120Z 2612/2712 15006KT P6SM SKC
     FM262000 32010KT P6SM VCSH SCT090
     FM262300 33011G20KT P6SM VCTS SCT060CB BKN080
     FM270400 15005KT P6SM SKC=

USA.gov is the U.S. government's official web portal to all federal, state and local government web resources and services.